[[{"header":{"parameterUnit":"m.s-1","parameterCategory":1,"la1":30.2991,"la2":30.254,"lo1":-89.0895,"lo2":-89.0444,"dy":0.0017,"dx":0.0017,"nx":28,"ny":28,"refTime":"2025-06-22T09:00:00:Z","depth":0,"parameterNumber":2,"parameterNumberName":"U-component_of_WINDS"},"data":[0,0,0,0,0,0,0,0,0,0,0,0,0,0,0,0,0,0,0,0,0,0,0,0,0,0,0,0,0,0,0,0,0,0,0,0,0,0,0,0,0,0,0,0,0,0,0,0,0,0,0,0,0,0,0,0,0,0,-0.1062,-0.1062,0,-0.1106,-0.1106,-0.1107,-0.1118,-0.1117,-0.1117,-0.1117,-0.1164,-0.1165,-0.1167,0,0,0,0,0,0,0,0,0,0,0,0,0,-0.0989,-0.099,-0.1062,-0.1062,-0.1063,-0.1106,-0.1106,-0.1107,-0.1118,-0.1117,-0.1117,-0.1117,-0.1163,-0.1165,-0.1167,0,0,0,0,0,0,0,0,0,0,0,0,0,-0.1026,-0.0991,-0.1062,-0.1073,-0.1075,-0.1106,-0.1106,-0.1107,-0.1118,-0.1117,-0.1117,-0.1116,-0.1163,-0.1165,-0.1167,-0.119,0,0,-0.1174,-0.1175,0,0,0,0,0,0,0,0,-0.1023,-0.1028,-0.1071,-0.1072,-0.1074,-0.1106,-0.1098,-0.1135,-0.1118,-0.1101,-0.1117,-0.1116,-0.1145,-0.1149,-0.1158,-0.1192,-0.1194,-0.1174,-0.1176,-0.1177,-0.1177,0,0,0,0,0,0,0,-0.1021,-0.1026,-0.1079,-0.1072,-0.1074,-0.1077,-0.1082,-0.1105,-0.1125,-0.1103,-0.1104,-0.1109,-0.1146,-0.1156,-0.1159,-0.1195,-0.1174,-0.1176,-0.1178,-0.1179,-0.1251,-0.1252,0,0,0,0,0,0,-0.1016,-0.1024,-0.1078,-0.108,-0.1047,-0.1079,-0.1084,-0.1096,-0.1125,-0.1129,-0.1109,-0.1109,-0.1152,-0.1156,-0.1161,-0.119,-0.1177,-0.1179,-0.118,-0.1251,-0.1251,-0.1252,0,0,0,0,0,0,-0.1014,-0.1021,-0.1076,-0.1053,-0.106,-0.108,-0.1094,-0.1097,-0.1107,-0.113,-0.1133,-0.1115,-0.1152,-0.1158,-0.1183,-0.1192,-0.118,-0.1182,-0.125,-0.1251,-0.1252,-0.1249,0,0,0,0,0,0,-0.1012,-0.102,-0.1029,-0.1053,-0.1061,-0.1097,-0.1094,-0.1098,-0.1111,-0.1111,-0.1137,-0.114,-0.1152,-0.1179,-0.1185,-0.1195,-0.1184,-0.1249,-0.125,-0.1251,-0.1248,-0.125,-0.1251,0,0,0,0,0,-0.101,-0.1026,-0.1029,-0.1035,-0.1072,-0.1097,-0.1102,-0.1114,-0.1111,-0.1121,-0.1135,-0.1139,-0.119,-0.1182,-0.1188,-0.1199,-0.1249,-0.125,-0.1251,-0.1248,-0.125,-0.1251,0,0,0,0,0,0,-0.1003,-0.103,-0.1033,-0.1058,-0.1075,-0.1099,-0.1111,-0.1116,-0.1135,-0.1134,-0.1149,-0.1155,-0.118,-0.1192,-0.1182,-0.1223,-0.1219,-0.1222,-0.1215,-0.1216,-0.1217,-0.1214,-0.1186,0,0,0,0,0,-0.1005,-0.1022,-0.1044,-0.1064,-0.1073,-0.109,-0.1102,-0.111,-0.1128,-0.1136,-0.1152,-0.1171,-0.1191,-0.1204,-0.1224,-0.125,-0.1256,-0.1261,-0.1262,-0.1263,-0.1265,-0.1281,-0.1283,-0.1256,-0.1256,-0.1256,0,0,-0.1008,-0.1024,-0.1035,-0.1063,-0.1078,-0.1097,-0.1096,-0.1116,-0.113,-0.1139,-0.1164,-0.1177,-0.1199,-0.1225,-0.1237,-0.1236,-0.1274,-0.1264,-0.1265,-0.1267,-0.1282,-0.1285,-0.1287,-0.1257,-0.1257,-0.1257,0,0,-0.1024,-0.1037,-0.1056,-0.107,-0.1092,-0.1103,-0.1107,-0.1131,-0.1139,-0.1164,-0.1172,-0.1189,-0.1223,-0.1239,-0.1251,-0.1273,-0.1278,-0.1279,-0.1285,-0.13,-0.1303,-0.1305,-0.1313,-0.1316,-0.1281,-0.1281,-0.1281,0,-0.1025,-0.1053,-0.1065,-0.1084,-0.1097,-0.1105,-0.1124,-0.1138,-0.1165,-0.1174,-0.1172,-0.1215,-0.1231,-0.1261,-0.1266,-0.1275,-0.1282,-0.1276,-0.1301,-0.1303,-0.1305,-0.1314,-0.1317,-0.1281,-0.1281,-0.1281,-0.1281,0,-0.1054,-0.1074,-0.1086,-0.1111,-0.1125,-0.1145,-0.116,-0.1173,-0.118,-0.1192,-0.1218,-0.1236,-0.126,-0.1267,-0.1274,-0.1299,-0.1297,-0.1298,-0.1295,-0.1308,-0.1316,-0.1319,-0.1281,-0.1281,-0.1281,-0.1281,0,0,-0.1068,-0.11,-0.1104,-0.1116,-0.114,-0.1156,-0.1176,-0.1199,-0.121,-0.1228,-0.1246,-0.1275,-0.1275,-0.1289,-0.1298,-0.1311,-0.1328,-0.131,-0.1311,-0.1314,-0.1358,-0.1358,-0.1361,-0.1331,-0.1332,-0.1332,-0.1356,0,-0.1088,-0.1123,-0.1134,-0.1164,-0.1182,-0.119,-0.1208,-0.1225,-0.1236,-0.1254,-0.1267,-0.1288,-0.1287,-0.1295,-0.1308,-0.1323,-0.1337,-0.1322,-0.1349,-0.135,-0.1344,-0.1365,-0.1366,-0.1387,-0.1359,-0.136,-0.136,0,-0.1115,-0.1134,-0.1165,-0.1188,-0.1196,-0.1211,-0.1233,-0.125,-0.127,-0.1278,-0.1293,-0.1301,-0.1323,-0.1317,-0.1348,-0.1337,-0.1349,-0.1358,-0.1359,-0.1363,-0.1357,-0.1371,-0.1394,-0.1398,-0.1365,-0.1365,-0.1364,0,-0.1123,-0.1156,-0.1179,-0.1189,-0.1216,-0.1226,-0.1238,-0.1258,-0.1271,-0.129,-0.1299,-0.1321,-0.1333,-0.135,-0.1364,-0.1358,-0.1394,-0.1389,-0.1402,-0.1402,-0.141,-0.141,-0.1436,-0.1416,-0.1416,-0.1416,-0.1415,0,-0.1145,-0.1164,-0.1183,-0.1198,-0.122,-0.1232,-0.1254,-0.1266,-0.1284,-0.1301,-0.1309,-0.1326,-0.1342,-0.1361,-0.1372,-0.1396,-0.1402,-0.1409,-0.1412,-0.1409,-0.1408,-0.1418,-0.1417,-0.1416,-0.1416,-0.1416,-0.1416,0,-0.1158,-0.1171,-0.1197,-0.122,-0.1226,-0.1242,-0.1262,-0.1277,-0.1288,-0.131,-0.1316,-0.1335,-0.1358,-0.1373,-0.1402,-0.1409,-0.1436,-0.1438,-0.1429,-0.1431,-0.1443,-0.1442,-0.1478,-0.1484,-0.1458,-0.1458,-0.1458,0,-0.1171,-0.1186,-0.121,-0.1222,-0.1234,-0.1253,-0.1267,-0.128,-0.1294,-0.1318,-0.133,-0.1353,-0.1372,-0.1408,-0.1425,-0.1447,-0.145,-0.1461,-0.1454,-0.1451,-0.1452,-0.1451,-0.1453,-0.1463,-0.1463,-0.1463,-0.1463,0,-0.1194,-0.12,-0.1218,-0.1239,-0.1255,-0.1273,-0.129,-0.13,-0.1316,-0.1331,-0.1354,-0.1369,-0.1398,-0.1422,-0.1445,-0.1458,-0.1464,-0.1465,-0.147,-0.1467,-0.1462,-0.1466,-0.1434,-0.1465,-0.1465,-0.1464,-0.1464,-0.1464,-0.1208,-0.1222,-0.1242,-0.1262,-0.1277,-0.1293,-0.1308,-0.1321,-0.1341,-0.1365,-0.1372,-0.1396,-0.1416,-0.1449,-0.1462,-0.1482,-0.1481,-0.1487,-0.1488,-0.149,-0.1491,-0.1458,-0.1486,-0.1486,-0.1486,-0.1486,-0.1486,0,-0.1232,-0.1245,-0.1264,-0.1288,-0.1304,-0.1307,-0.1327,-0.1341,-0.1362,-0.138,-0.1398,-0.1425,-0.1447,-0.1466,-0.1489,-0.1501,-0.1505,-0.1507,-0.1507,-0.151,-0.149,-0.1484,-0.1504,-0.1504,-0.1504,-0.1504,-0.1504,-0.1504,-0.1247,-0.1271,-0.1279,-0.131,-0.1323,-0.1347,-0.1358,-0.1373,-0.1388,-0.1417,-0.1435,-0.1447,-0.1465,-0.149,-0.1511,-0.1516,-0.1525,-0.1527,-0.1532,-0.1513,-0.1511,-0.151,-0.1504,-0.1528,-0.1528,-0.1551,-0.1551,-0.1552]},{"header":{"parameterUnit":"m.s-1","parameterCategory":1,"la1":30.2991,"la2":30.254,"lo1":-89.0895,"lo2":-89.0444,"dy":0.0017,"dx":0.0017,"nx":28,"ny":28,"refTime":"2025-06-22T09:00:00:Z","depth":0,"parameterNumber":3,"parameterNumberName":"V-component_of_WINDS"},"data":[0,0,0,0,0,0,0,0,0,0,0,0,0,0,0,0,0,0,0,0,0,0,0,0,0,0,0,0,0,0,0,0,0,0,0,0,0,0,0,0,0,0,0,0,0,0,0,0,0,0,0,0,0,0,0,0,0,0,1.328,1.3279,0,1.3268,1.3268,1.3268,1.3206,1.3205,1.3203,1.3202,1.3191,1.3192,1.3194,0,0,0,0,0,0,0,0,0,0,0,0,0,1.3247,1.3248,1.328,1.3279,1.3279,1.3268,1.3268,1.3268,1.3207,1.3205,1.3203,1.3201,1.3191,1.3192,1.3194,0,0,0,0,0,0,0,0,0,0,0,0,0,1.3251,1.3248,1.328,1.3247,1.3244,1.3268,1.3268,1.3268,1.3207,1.3205,1.3203,1.3201,1.3191,1.3192,1.3194,1.3248,0,0,1.3199,1.32,0,0,0,0,0,0,0,0,1.3251,1.3253,1.3252,1.325,1.3246,1.3236,1.3253,1.3262,1.3208,1.3221,1.3202,1.3199,1.3208,1.3208,1.3211,1.3248,1.3247,1.3199,1.32,1.3201,1.3201,0,0,0,0,0,0,0,1.3251,1.3253,1.3275,1.3252,1.3249,1.3233,1.3231,1.3254,1.3227,1.322,1.3215,1.3215,1.3206,1.321,1.321,1.3247,1.3199,1.32,1.3201,1.3202,1.3327,1.3329,0,0,0,0,0,0,1.3255,1.3253,1.3275,1.3275,1.3243,1.3236,1.3233,1.3242,1.3227,1.3222,1.3217,1.3212,1.3208,1.3209,1.321,1.3271,1.3201,1.3202,1.3203,1.3324,1.3327,1.333,0,0,0,0,0,0,1.3255,1.3258,1.3276,1.3263,1.3264,1.3239,1.3248,1.3243,1.3246,1.3225,1.3219,1.3225,1.3206,1.3207,1.3239,1.327,1.3203,1.3204,1.3322,1.3325,1.3328,1.3396,0,0,0,0,0,0,1.3254,1.3258,1.3279,1.3264,1.3265,1.3306,1.325,1.3244,1.3249,1.3243,1.3231,1.3227,1.3205,1.3237,1.324,1.3271,1.3206,1.3319,1.3323,1.3327,1.3391,1.3401,1.341,0,0,0,0,0,1.3253,1.3299,1.328,1.3283,1.329,1.3307,1.3308,1.3281,1.3252,1.3272,1.3258,1.3227,1.3266,1.324,1.3244,1.3276,1.3317,1.3322,1.3327,1.3386,1.3399,1.341,0,0,0,0,0,0,1.3319,1.3296,1.3275,1.3317,1.3315,1.3297,1.3322,1.3296,1.3302,1.3295,1.3262,1.326,1.3296,1.3289,1.3261,1.3327,1.3286,1.3292,1.333,1.3342,1.3352,1.3352,1.3207,0,0,0,0,0,1.3338,1.3354,1.3333,1.3373,1.3372,1.3348,1.3354,1.3333,1.3329,1.3328,1.3316,1.3314,1.3325,1.3333,1.3343,1.339,1.3386,1.3413,1.3423,1.3431,1.3437,1.3459,1.3471,1.3347,1.3347,1.3347,0,0,1.3378,1.3368,1.338,1.3385,1.3381,1.3398,1.3347,1.3367,1.3379,1.3331,1.3359,1.3351,1.3346,1.3385,1.3401,1.338,1.347,1.3438,1.3444,1.3445,1.3466,1.3478,1.3488,1.335,1.335,1.3349,0,0,1.346,1.3454,1.3485,1.3481,1.3475,1.3458,1.3465,1.3451,1.3444,1.3471,1.3435,1.3449,1.347,1.3467,1.3469,1.3548,1.352,1.3552,1.3603,1.3625,1.3635,1.3644,1.3671,1.3681,1.3558,1.3558,1.3558,0,1.351,1.3534,1.3504,1.3527,1.3529,1.3486,1.3517,1.3515,1.3512,1.3515,1.3492,1.3516,1.3509,1.3546,1.3565,1.3569,1.3575,1.3553,1.3636,1.3644,1.3652,1.3677,1.3688,1.3562,1.3562,1.3561,1.3561,0,1.3596,1.3613,1.3639,1.3636,1.3642,1.3669,1.3643,1.3652,1.3631,1.3617,1.3645,1.3636,1.3642,1.3649,1.3629,1.3683,1.367,1.3642,1.36,1.3668,1.3691,1.3701,1.3568,1.3566,1.3565,1.3564,0,0,1.3719,1.3698,1.3708,1.3706,1.3695,1.3708,1.3732,1.3737,1.3746,1.3745,1.3764,1.3782,1.3756,1.3757,1.3737,1.3757,1.3818,1.3726,1.3725,1.3742,1.3876,1.3896,1.3908,1.38,1.3802,1.3803,1.3876,0,1.3795,1.3835,1.3808,1.3852,1.3867,1.3825,1.3846,1.3842,1.3829,1.384,1.3825,1.3838,1.3803,1.3803,1.3821,1.3807,1.3844,1.3802,1.3816,1.3817,1.3818,1.392,1.3942,1.4011,1.3885,1.3886,1.3887,0,1.389,1.3892,1.3938,1.3923,1.3928,1.3947,1.3949,1.396,1.3954,1.3943,1.3944,1.3918,1.394,1.39,1.393,1.3901,1.3905,1.3899,1.3901,1.3901,1.3856,1.3921,1.4032,1.4042,1.3902,1.39,1.3899,0,1.3973,1.3988,1.4016,1.4016,1.3999,1.4013,1.4007,1.3999,1.4004,1.4006,1.4008,1.4013,1.4016,1.402,1.3996,1.3969,1.4028,1.3986,1.4019,1.402,1.4033,1.4032,1.4145,1.4038,1.4038,1.4038,1.4037,0,1.406,1.4089,1.4053,1.407,1.4101,1.407,1.4102,1.4091,1.4084,1.4099,1.4064,1.4078,1.4046,1.4057,1.4038,1.4064,1.4066,1.4058,1.4052,1.406,1.4061,1.4062,1.4056,1.404,1.404,1.4039,1.4039,0,1.4158,1.4135,1.4163,1.4144,1.414,1.4164,1.4148,1.4163,1.4148,1.4167,1.4169,1.4145,1.4156,1.4132,1.414,1.4127,1.4165,1.4153,1.4167,1.4163,1.4197,1.4193,1.4313,1.4327,1.4212,1.4214,1.4214,0,1.4215,1.4236,1.4219,1.4226,1.4222,1.4233,1.4237,1.4208,1.4213,1.4207,1.4223,1.4231,1.4236,1.4255,1.4238,1.4244,1.4231,1.4272,1.4231,1.4238,1.423,1.4228,1.423,1.428,1.4282,1.4283,1.4284,0,1.4318,1.4305,1.4312,1.4314,1.432,1.4321,1.4319,1.4327,1.4295,1.4303,1.4314,1.4317,1.4325,1.4333,1.4334,1.4328,1.4301,1.4297,1.4305,1.4313,1.4319,1.4315,1.4188,1.4294,1.4293,1.4292,1.4292,1.4291,1.4395,1.4411,1.4402,1.441,1.4406,1.4405,1.4418,1.4404,1.4412,1.4415,1.4397,1.4411,1.4403,1.4403,1.4399,1.441,1.4391,1.4402,1.4405,1.4408,1.4413,1.4319,1.441,1.441,1.4409,1.4409,1.4409,0,1.4495,1.4487,1.4495,1.4493,1.45,1.4473,1.447,1.4477,1.4489,1.4485,1.4489,1.4501,1.4508,1.4492,1.4497,1.4508,1.4496,1.451,1.4509,1.4507,1.443,1.4422,1.452,1.452,1.452,1.452,1.452,1.452,1.4548,1.4573,1.4559,1.4581,1.4573,1.4586,1.4586,1.4585,1.458,1.4594,1.46,1.4589,1.4579,1.4583,1.4588,1.4583,1.4586,1.4605,1.4596,1.4524,1.4513,1.4502,1.4495,1.4606,1.4606,1.4672,1.4672,1.4673]}]]